CSA184 LKPR-UZTT

Flight info

Callsign CSA184
Flight time N/A
Altitude 35000
Route VOZ DCT LALES DCT MIZOL DCT OKLIV DCT KENUX DCT OSDOR/K0835F350 DCT ABRAN M860 KUGOS/N0451F350 UL851 KARDE UN644 ROLIN N644 LAGAS M747 VERCA/N0448F370 M747 LUSAL N199 RASAM L88 METKA B476 DARVA/K0828F370 T898 OGOLI N193 DIBAD DIBAD2U
Aircraft A319/M-SDE3FGHIRWY/H

Departure

Time N/A
Airport Václav Havel Airport Prague (LKPR)

Arrival

Time 2026-04-26 01:17
Airport Tashkent International Airport (UZTT)
Time Latitude Longitude Altitude Speed Heading
2026-04-26 00:18 41.34197 59.65920 35122 ft 509 kts 90°
2026-04-26 00:19 41.33942 59.75270 35120 ft 505 kts 97°
2026-04-26 00:19 41.33497 59.84582 35116 ft 504 kts 97°
2026-04-26 00:20 41.33058 59.93905 35112 ft 504 kts 97°
2026-04-26 00:20 41.32610 60.03207 35111 ft 504 kts 97°
2026-04-26 00:21 41.32156 60.12530 35103 ft 504 kts 97°
2026-04-26 00:21 41.31710 60.21837 35107 ft 504 kts 97°
2026-04-26 00:22 41.31253 60.31143 35106 ft 504 kts 97°
2026-04-26 00:22 41.30776 60.40447 35098 ft 504 kts 97°
2026-04-26 00:23 41.31045 60.49760 35100 ft 508 kts 88°
2026-04-26 00:23 41.31562 60.59146 35095 ft 508 kts 89°
2026-04-26 00:24 41.32056 60.68539 35088 ft 509 kts 89°
2026-04-26 00:24 41.32535 60.77924 35085 ft 509 kts 89°
2026-04-26 00:25 41.33010 60.87325 35083 ft 509 kts 89°
2026-04-26 00:25 41.33486 60.96734 35082 ft 510 kts 89°
2026-04-26 00:26 41.33953 61.06154 35078 ft 510 kts 89°
2026-04-26 00:26 41.34408 61.15570 35077 ft 510 kts 89°
2026-04-26 00:27 41.34850 61.24941 35073 ft 510 kts 89°
2026-04-26 00:27 41.35292 61.34360 35071 ft 510 kts 90°
2026-04-26 00:28 41.35723 61.43793 35066 ft 510 kts 90°
2026-04-26 00:28 41.36152 61.53215 35071 ft 510 kts 90°
2026-04-26 00:29 41.36593 61.62639 35066 ft 510 kts 90°
2026-04-26 00:29 41.37018 61.72068 35066 ft 510 kts 90°
2026-04-26 00:30 41.37419 61.81437 35067 ft 510 kts 90°
2026-04-26 00:30 41.37814 61.90870 35062 ft 510 kts 90°
2026-04-26 00:31 41.38204 62.00297 35056 ft 510 kts 90°
2026-04-26 00:31 41.38591 62.09732 35053 ft 510 kts 90°
2026-04-26 00:32 41.38906 62.17571 35054 ft 510 kts 90°
2026-04-26 00:32 41.39449 62.31722 35051 ft 510 kts 91°
2026-04-26 00:33 41.39804 62.41175 35051 ft 510 kts 91°
2026-04-26 00:33 41.40154 62.50554 35049 ft 510 kts 91°
2026-04-26 00:34 41.40516 62.59992 35048 ft 510 kts 91°
2026-04-26 00:34 41.40892 62.69443 35047 ft 510 kts 91°
2026-04-26 00:35 41.41256 62.78881 35043 ft 510 kts 91°
2026-04-26 00:35 41.41605 62.88334 35047 ft 510 kts 91°
2026-04-26 00:36 41.41949 62.97770 35040 ft 510 kts 91°
2026-04-26 00:36 41.42284 63.07210 35039 ft 510 kts 91°
2026-04-26 00:37 41.42603 63.16638 35034 ft 509 kts 91°
2026-04-26 00:37 41.42924 63.26068 35034 ft 509 kts 91°
2026-04-26 00:38 41.43240 63.35422 35030 ft 509 kts 91°
2026-04-26 00:38 41.43550 63.44842 35029 ft 508 kts 91°
2026-04-26 00:39 41.43848 63.54267 35024 ft 508 kts 91°
2026-04-26 00:39 41.44123 63.63672 35017 ft 508 kts 92°
2026-04-26 00:40 41.44392 63.73084 35016 ft 507 kts 91°
2026-04-26 00:40 41.44655 63.82488 35013 ft 507 kts 91°
2026-04-26 00:41 41.44907 63.91823 35008 ft 507 kts 92°
2026-04-26 00:41 41.45146 64.01211 35005 ft 507 kts 92°
2026-04-26 00:42 41.45374 64.10601 34999 ft 507 kts 92°
2026-04-26 00:42 41.45595 64.19985 34996 ft 506 kts 92°
2026-04-26 00:43 41.45815 64.29363 34994 ft 506 kts 92°
2026-04-26 00:43 41.46033 64.38742 34988 ft 506 kts 92°
2026-04-26 00:44 41.46243 64.48111 34985 ft 505 kts 92°
2026-04-26 00:44 41.46435 64.57475 34980 ft 505 kts 92°
2026-04-26 00:45 41.46619 64.66836 34971 ft 505 kts 92°
2026-04-26 00:45 41.46797 64.76200 34969 ft 505 kts 92°
2026-04-26 00:46 41.46968 64.85574 34961 ft 506 kts 92°
2026-04-26 00:46 41.47140 64.94952 34953 ft 506 kts 92°
2026-04-26 00:47 41.47298 65.04334 34949 ft 506 kts 92°
2026-04-26 00:47 41.47444 65.13653 34946 ft 506 kts 92°
2026-04-26 00:48 41.47589 65.23045 34937 ft 507 kts 92°
2026-04-26 00:48 41.47726 65.32445 34939 ft 507 kts 92°
2026-04-26 00:49 41.47856 65.41856 34934 ft 508 kts 92°
2026-04-26 00:49 41.47980 65.51278 34936 ft 509 kts 92°
2026-04-26 00:50 41.48091 65.60723 34933 ft 509 kts 92°
2026-04-26 00:50 41.48196 65.70182 34931 ft 510 kts 92°
2026-04-26 00:51 41.48286 65.79652 34933 ft 511 kts 92°
2026-04-26 00:51 41.48342 65.89130 34934 ft 511 kts 93°
2026-04-26 00:52 41.48359 65.98553 34938 ft 512 kts 93°
2026-04-26 00:52 41.48358 66.08042 34943 ft 512 kts 93°
2026-04-26 00:53 41.48356 66.17543 34949 ft 512 kts 93°
2026-04-26 00:53 41.48361 66.27040 34956 ft 512 kts 93°
2026-04-26 00:54 41.48356 66.36473 34954 ft 511 kts 93°
2026-04-26 00:54 41.48339 66.45951 34954 ft 511 kts 93°
2026-04-26 00:55 41.48313 66.55438 34960 ft 511 kts 93°
2026-04-26 00:55 41.47739 66.64823 34960 ft 505 kts 105°
2026-04-26 00:56 41.46389 66.74014 34960 ft 505 kts 105°
2026-04-26 00:56 41.45044 66.83212 34965 ft 505 kts 105°
2026-04-26 00:57 41.43702 66.92408 34965 ft 506 kts 105°
2026-04-26 00:57 41.42342 67.01605 34957 ft 506 kts 105°
2026-04-26 00:58 41.41653 67.06209 34200 ft 510 kts 105°
2026-04-26 00:58 41.40941 67.10902 32930 ft 521 kts 105°
2026-04-26 00:58 41.40227 67.15616 32207 ft 518 kts 104°
2026-04-26 00:58 41.39519 67.20311 31438 ft 515 kts 104°
2026-04-26 00:59 41.38830 67.24905 30658 ft 512 kts 104°
2026-04-26 00:59 41.38134 67.29550 29808 ft 510 kts 104°
2026-04-26 00:59 41.37437 67.34183 28768 ft 509 kts 104°
2026-04-26 00:59 41.36739 67.38808 27650 ft 510 kts 104°
2026-04-26 01:00 41.36040 67.43431 26409 ft 507 kts 104°
2026-04-26 01:00 41.35347 67.48023 25011 ft 503 kts 104°
2026-04-26 01:00 41.34660 67.52567 23663 ft 498 kts 104°
2026-04-26 01:00 41.33976 67.57053 22269 ft 490 kts 104°
2026-04-26 01:01 41.33297 67.61458 21025 ft 481 kts 104°
2026-04-26 01:01 41.32632 67.65744 20284 ft 463 kts 104°
2026-04-26 01:01 41.31992 67.69864 19599 ft 447 kts 103°
2026-04-26 01:01 41.31373 67.73851 18950 ft 433 kts 103°
2026-04-26 01:02 41.30774 67.77721 18338 ft 422 kts 103°
2026-04-26 01:02 41.30190 67.81490 17695 ft 411 kts 103°
2026-04-26 01:02 41.29612 67.85199 17151 ft 409 kts 103°
2026-04-26 01:02 41.29031 67.88888 16601 ft 406 kts 103°
2026-04-26 01:03 41.28471 67.92556 16090 ft 404 kts 99°
2026-04-26 01:03 41.28264 67.96315 15544 ft 418 kts 91°
2026-04-26 01:03 41.28201 68.00200 14918 ft 421 kts 91°
2026-04-26 01:03 41.28144 68.04085 14329 ft 419 kts 91°
2026-04-26 01:04 41.28088 68.07950 13722 ft 417 kts 91°
2026-04-26 01:04 41.28028 68.11746 13096 ft 415 kts 91°
2026-04-26 01:04 41.27962 68.15559 12510 ft 410 kts 91°
2026-04-26 01:04 41.27890 68.19326 11937 ft 405 kts 91°
2026-04-26 01:05 41.27815 68.23043 11362 ft 399 kts 91°
2026-04-26 01:05 41.27741 68.26689 11023 ft 387 kts 91°
2026-04-26 01:05 41.27669 68.30186 10901 ft 369 kts 91°
2026-04-26 01:05 41.27601 68.33527 10779 ft 354 kts 91°
2026-04-26 01:06 41.27537 68.36729 10655 ft 340 kts 91°
2026-04-26 01:06 41.27476 68.39813 10543 ft 327 kts 91°
2026-04-26 01:06 41.27418 68.42779 10416 ft 316 kts 91°
2026-04-26 01:06 41.27359 68.45655 10230 ft 308 kts 91°
2026-04-26 01:07 41.27301 68.48469 10053 ft 302 kts 91°
2026-04-26 01:07 41.27244 68.51264 9920 ft 303 kts 91°
2026-04-26 01:07 41.27186 68.54064 9508 ft 302 kts 91°
2026-04-26 01:07 41.27128 68.56847 9151 ft 300 kts 92°
2026-04-26 01:08 41.27069 68.59598 8804 ft 297 kts 92°
2026-04-26 01:08 41.27009 68.62327 8457 ft 294 kts 92°
2026-04-26 01:08 41.26948 68.65031 8118 ft 291 kts 92°
2026-04-26 01:08 41.26887 68.67716 7777 ft 289 kts 93°
2026-04-26 01:09 41.26826 68.70377 7440 ft 287 kts 93°
2026-04-26 01:09 41.26766 68.72984 7112 ft 285 kts 93°
2026-04-26 01:09 41.26707 68.75607 6778 ft 283 kts 94°
2026-04-26 01:09 41.26645 68.78206 6451 ft 280 kts 94°
2026-04-26 01:10 41.26582 68.80785 6110 ft 278 kts 94°
2026-04-26 01:10 41.26521 68.83352 5781 ft 276 kts 94°
2026-04-26 01:10 41.26461 68.85894 5460 ft 274 kts 94°
2026-04-26 01:10 41.26162 68.88364 5146 ft 269 kts 109°
2026-04-26 01:11 41.25429 68.90627 4834 ft 266 kts 117°
2026-04-26 01:11 41.24641 68.92839 4512 ft 264 kts 117°
2026-04-26 01:11 41.23873 68.95003 4384 ft 252 kts 117°
2026-04-26 01:11 41.23148 68.97053 4287 ft 239 kts 116°
2026-04-26 01:12 41.22684 68.99109 4190 ft 228 kts 99°
2026-04-26 01:12 41.22676 69.01173 4092 ft 220 kts 87°
2026-04-26 01:12 41.22866 69.03146 3997 ft 211 kts 84°
2026-04-26 01:12 41.23080 69.05034 3924 ft 201 kts 84°
2026-04-26 01:13 41.23280 69.06794 3831 ft 191 kts 85°
2026-04-26 01:13 41.23471 69.08487 3747 ft 179 kts 85°
2026-04-26 01:13 41.23650 69.10087 3635 ft 172 kts 85°
2026-04-26 01:13 41.23823 69.11636 3458 ft 168 kts 85°
2026-04-26 01:14 41.23994 69.13161 3261 ft 163 kts 85°
2026-04-26 01:14 41.24156 69.14610 3061 ft 151 kts 85°
2026-04-26 01:14 41.24306 69.15949 2867 ft 143 kts 86°
2026-04-26 01:14 41.24450 69.17243 2685 ft 140 kts 86°
2026-04-26 01:15 41.24593 69.18506 2534 ft 137 kts 85°
2026-04-26 01:15 41.24737 69.19760 2356 ft 136 kts 85°
2026-04-26 01:15 41.24876 69.21006 2176 ft 136 kts 84°
2026-04-26 01:15 41.25002 69.22249 1999 ft 136 kts 83°
2026-04-26 01:16 41.25140 69.23489 1788 ft 135 kts 81°
2026-04-26 01:16 41.25274 69.24714 1636 ft 134 kts 81°
2026-04-26 01:16 41.25411 69.25932 1448 ft 132 kts 81°
2026-04-26 01:16 41.25541 69.27038 1404 ft 102 kts 81°
2026-04-26 01:17 41.25597 69.27601 1404 ft 33 kts 82°
2026-04-26 01:17 41.25686 69.27682 1404 ft 15 kts 324°
2026-04-26 01:17 41.25754 69.27611 1408 ft 10 kts 321°
2026-04-26 01:17 41.25796 69.27564 1404 ft 6 kts 317°
2026-04-26 01:18 41.25822 69.27530 1409 ft 8 kts 315°
2026-04-26 01:18 41.25872 69.27465 1407 ft 11 kts 315°
2026-04-26 01:18 41.25928 69.27397 1405 ft 11 kts 319°
2026-04-26 01:18 41.25987 69.27330 1406 ft 11 kts 319°
2026-04-26 01:19 41.26047 69.27260 1406 ft 12 kts 318°
2026-04-26 01:19 41.26108 69.27187 1405 ft 12 kts 317°
2026-04-26 01:19 41.26115 69.27092 1410 ft 11 kts 244°
2026-04-26 01:19 41.26080 69.26997 1406 ft 12 kts 242°
2026-04-26 01:20 41.26051 69.26896 1409 ft 12 kts 252°
2026-04-26 01:20 41.26024 69.26808 1407 ft 5 kts 256°
2026-04-26 01:20 41.26046 69.26776 1405 ft 5 kts 321°
2026-04-26 01:20 41.26072 69.26744 1408 ft 5 kts 317°
2026-04-26 01:21 41.26105 69.26720 1411 ft 5 kts 331°
2026-04-26 01:21 41.26120 69.26708 1409 ft 2 kts 329°
2026-04-26 01:21 41.26125 69.26704 1409 ft 0 kts 329°
2026-04-26 01:30 41.26124 69.26704 1404 ft 0 kts 329°